When you browse on this site, cookies collect data to enhance your experience and personalize the content and advertising you see.
Visit our Privacy Policy to learn more. By continuing to use the site, you agree to this use of cookies and data.
  • Em Portugal
  • Lista de países
  • Para 7 dias
  • Temperatura da água
  • Mapas de satélite
  • Mapa do tempo
  • Widgets de tempo
  • user-avatar
    Iniciar Sessão

    Previsão horária em Polikschina

    Hoje, 17 Julho, Quarta-feira

    Tempo Temperatura Precipitação Vento Pressão Humidade
    00:00 +13°C° 0.7 mm 2 m/s 736 mmHg 93%
    01:00 +13°C° 0.7 mm 2 m/s 736 mmHg 95%
    02:00 +12°C° 0 mm 2 m/s 736 mmHg 97%
    03:00 +12°C° 0.1 mm 2 m/s 736 mmHg 97%
    04:00 +12°C° 0.1 mm 2 m/s 736 mmHg 97%
    05:00 +12°C° 0.1 mm 2 m/s 736 mmHg 97%
    06:00 +13°C° 0.1 mm 2 m/s 736 mmHg 94%
    07:00 +13°C° 0.1 mm 3 m/s 736 mmHg 90%
    08:00 +14°C° 0.1 mm 3 m/s 736 mmHg 87%
    09:00 +16°C° 0.7 mm 3 m/s 736 mmHg 83%
    10:00 +15°C° 0.7 mm 4 m/s 736 mmHg 79%
    11:00 +17°C° 0.7 mm 4 m/s 736 mmHg 76%
    12:00 +18°C° 0.3 mm 4 m/s 736 mmHg 73%
    13:00 +17°C° 0.3 mm 5 m/s 735 mmHg 71%
    14:00 +19°C° 0.3 mm 5 m/s 735 mmHg 69%
    15:00 +17°C° 0.3 mm 5 m/s 735 mmHg 71%
    16:00 +18°C° 0.3 mm 4 m/s 735 mmHg 72%
    17:00 +18°C° 0.3 mm 4 m/s 735 mmHg 74%
    18:00 +17°C° 0.3 mm 4 m/s 735 mmHg 79%
    19:00 +15°C° 0.3 mm 4 m/s 735 mmHg 84%
    20:00 +14°C° 0.3 mm 3 m/s 735 mmHg 89%
    21:00 +13°C° 0 mm 3 m/s 735 mmHg 91%
    22:00 +12°C° 0 mm 3 m/s 735 mmHg 92%
    23:00 +12°C° 0 mm 3 m/s 735 mmHg 94%

    Amanhã, 18 Julho, Quinta-feira

    Tempo Temperatura Precipitação Vento Pressão Humidade
    00:00 +12°C° 0 mm 3 m/s 735 mmHg 95%
    01:00 +12°C° 0 mm 3 m/s 735 mmHg 95%
    02:00 +11°C° 0 mm 3 m/s 735 mmHg 96%
    03:00 +11°C° 0 mm 3 m/s 735 mmHg 96%
    04:00 +11°C° 0 mm 3 m/s 735 mmHg 96%
    05:00 +11°C° 0 mm 4 m/s 735 mmHg 96%
    06:00 +12°C° 0 mm 4 m/s 736 mmHg 94%
    07:00 +13°C° 0 mm 4 m/s 736 mmHg 91%
    08:00 +14°C° 0 mm 4 m/s 736 mmHg 88%
    09:00 +14°C° 0.3 mm 4 m/s 736 mmHg 89%
    10:00 +14°C° 0.3 mm 3 m/s 736 mmHg 91%
    11:00 +14°C° 0.3 mm 3 m/s 737 mmHg 92%
    12:00 +17°C° 0.6 mm 4 m/s 737 mmHg 87%
    13:00 +17°C° 0.6 mm 5 m/s 737 mmHg 83%
    14:00 +20°C° 0.6 mm 6 m/s 737 mmHg 79%
    15:00 +20°C° 0.5 mm 5 m/s 737 mmHg 79%
    16:00 +20°C° 0.5 mm 5 m/s 737 mmHg 80%
    17:00 +20°C° 0.5 mm 5 m/s 737 mmHg 80%
    18:00 +19°C° 0.2 mm 5 m/s 737 mmHg 84%
    19:00 +18°C° 0.2 mm 4 m/s 737 mmHg 87%
    20:00 +17°C° 0.2 mm 4 m/s 737 mmHg 90%
    21:00 +15°C° 0 mm 4 m/s 738 mmHg 91%
    22:00 +14°C° 0 mm 4 m/s 738 mmHg 92%
    23:00 +14°C° 0 mm 4 m/s 739 mmHg 92%

    Depois de amanhã, 19 Julho, Sexta-feira

    Tempo Temperatura Precipitação Vento Pressão Humidade
    00:00 +13°C° 0 mm 4 m/s 739 mmHg 93%
    01:00 +13°C° 0 mm 4 m/s 739 mmHg 93%
    02:00 +12°C° 0 mm 4 m/s 739 mmHg 94%
    03:00 +12°C° 0 mm 4 m/s 739 mmHg 94%
    04:00 +12°C° 0 mm 4 m/s 740 mmHg 93%
    05:00 +11°C° 0 mm 4 m/s 740 mmHg 93%
    06:00 +13°C° 0 mm 4 m/s 740 mmHg 89%
    07:00 +15°C° 0 mm 4 m/s 740 mmHg 85%
    08:00 +16°C° 0 mm 5 m/s 741 mmHg 80%
    09:00 +19°C° 0 mm 5 m/s 741 mmHg 75%
    10:00 +20°C° 0 mm 5 m/s 741 mmHg 69%
    11:00 +21°C° 0 mm 5 m/s 741 mmHg 64%
    12:00 +21°C° 0 mm 5 m/s 741 mmHg 63%
    13:00 +22°C° 0 mm 5 m/s 741 mmHg 62%
    14:00 +22°C° 0 mm 5 m/s 741 mmHg 61%
    15:00 +22°C° 0 mm 5 m/s 741 mmHg 62%
    16:00 +22°C° 0 mm 5 m/s 741 mmHg 63%
    17:00 +22°C° 0 mm 5 m/s 741 mmHg 64%
    18:00 +20°C° 0 mm 4 m/s 741 mmHg 69%
    19:00 +19°C° 0 mm 4 m/s 741 mmHg 73%
    20:00 +17°C° 0 mm 3 m/s 742 mmHg 78%
    21:00 +16°C° 0 mm 3 m/s 742 mmHg 81%
    22:00 +14°C° 0 mm 3 m/s 742 mmHg 84%
    23:00 +15°C° 0 mm 2 m/s 742 mmHg 86%

    20 Julho, Sábado

    Tempo Temperatura Precipitação Vento Pressão Humidade
    00:00 +14°C° 0 mm 2 m/s 742 mmHg 87%
    01:00 +14°C° 0 mm 2 m/s 743 mmHg 88%
    02:00 +13°C° 0 mm 2 m/s 743 mmHg 89%
    03:00 +13°C° 0 mm 2 m/s 743 mmHg 90%
    04:00 +13°C° 0 mm 2 m/s 743 mmHg 90%
    05:00 +13°C° 0 mm 2 m/s 743 mmHg 91%
    06:00 +15°C° 0 mm 2 m/s 743 mmHg 87%
    07:00 +17°C° 0 mm 3 m/s 744 mmHg 82%
    08:00 +19°C° 0 mm 3 m/s 744 mmHg 78%
    09:00 +20°C° 0 mm 3 m/s 744 mmHg 72%
    10:00 +21°C° 0 mm 3 m/s 744 mmHg 66%
    11:00 +22°C° 0 mm 3 m/s 744 mmHg 61%
    12:00 +22°C° 0 mm 3 m/s 744 mmHg 59%
    13:00 +24°C° 0 mm 3 m/s 744 mmHg 57%
    14:00 +24°C° 0 mm 3 m/s 744 mmHg 55%
    15:00 +24°C° 0 mm 3 m/s 744 mmHg 57%
    16:00 +24°C° 0 mm 3 m/s 744 mmHg 59%
    17:00 +24°C° 0 mm 3 m/s 745 mmHg 61%
    18:00 +21°C° 0 mm 2 m/s 745 mmHg 65%
    19:00 +20°C° 0 mm 2 m/s 745 mmHg 70%
    20:00 +19°C° 0 mm 1 m/s 745 mmHg 74%
    21:00 +19°C° 0 mm 1 m/s 745 mmHg 77%
    22:00 +18°C° 0 mm 1 m/s 745 mmHg 80%
    23:00 +16°C° 0 mm 2 m/s 746 mmHg 82%

    21 Julho, Domingo

    Tempo Temperatura Precipitação Vento Pressão Humidade
    00:00 +16°C° 0 mm 1 m/s 746 mmHg 83%
    01:00 +15°C° 0 mm 1 m/s 746 mmHg 84%
    02:00 +15°C° 0 mm 1 m/s 746 mmHg 85%
    03:00 +15°C° 0 mm 1 m/s 746 mmHg 85%
    04:00 +15°C° 0 mm 1 m/s 746 mmHg 84%
    05:00 +15°C° 0 mm 1 m/s 746 mmHg 84%
    06:00 +16°C° 0 mm 1 m/s 746 mmHg 79%
    07:00 +19°C° 0 mm 1 m/s 746 mmHg 74%
    08:00 +21°C° 0 mm 1 m/s 746 mmHg 69%
    09:00 +22°C° 0 mm 1 m/s 746 mmHg 64%
    10:00 +23°C° 0 mm 1 m/s 746 mmHg 59%
    11:00 +25°C° 0 mm 1 m/s 746 mmHg 54%
    12:00 +25°C° 0 mm 1 m/s 746 mmHg 52%
    13:00 +25°C° 0 mm 1 m/s 746 mmHg 50%
    14:00 +26°C° 0 mm 1 m/s 746 mmHg 48%
    15:00 +26°C° 0 mm 1 m/s 746 mmHg 50%
    16:00 +26°C° 0 mm 1 m/s 745 mmHg 51%
    17:00 +26°C° 0 mm 1 m/s 745 mmHg 52%
    18:00 +24°C° 0 mm 1 m/s 745 mmHg 58%
    19:00 +23°C° 0 mm 1 m/s 745 mmHg 63%
    20:00 +19°C° 0 mm 0 m/s 745 mmHg 69%
    21:00 +20°C° 0 mm 1 m/s 745 mmHg 71%
    22:00 +19°C° 0 mm 1 m/s 745 mmHg 73%
    23:00 +18°C° 0 mm 1 m/s 745 mmHg 76%

    22 Julho, Segunda-feira

    Tempo Temperatura Precipitação Vento Pressão Humidade
    00:00 +18°C° 0 mm 1 m/s 745 mmHg 77%
    01:00 +18°C° 0 mm 1 m/s 745 mmHg 78%
    02:00 +16°C° 0 mm 1 m/s 745 mmHg 80%
    03:00 +16°C° 0 mm 1 m/s 745 mmHg 81%
    04:00 +16°C° 0 mm 1 m/s 745 mmHg 82%
    05:00 +16°C° 0 mm 1 m/s 745 mmHg 83%
    06:00 +18°C° 0 mm 1 m/s 745 mmHg 80%
    07:00 +19°C° 0 mm 2 m/s 745 mmHg 77%
    08:00 +20°C° 0 mm 2 m/s 745 mmHg 73%
    09:00 +21°C° 0 mm 2 m/s 745 mmHg 70%
    10:00 +22°C° 0 mm 3 m/s 745 mmHg 66%
    11:00 +24°C° 0 mm 3 m/s 745 mmHg 62%
    12:00 +25°C° 0 mm 3 m/s 745 mmHg 60%
    13:00 +25°C° 0 mm 2 m/s 745 mmHg 59%
    14:00 +25°C° 0 mm 2 m/s 745 mmHg 57%
    15:00 +25°C° 0 mm 2 m/s 745 mmHg 58%
    16:00 +25°C° 0 mm 2 m/s 745 mmHg 59%
    17:00 +25°C° 0 mm 2 m/s 745 mmHg 60%
    18:00 +24°C° 0.1 mm 2 m/s 745 mmHg 67%
    19:00 +21°C° 0.1 mm 2 m/s 745 mmHg 73%
    20:00 +20°C° 0.1 mm 2 m/s 745 mmHg 79%
    21:00 +19°C° 0 mm 2 m/s 745 mmHg 83%
    22:00 +18°C° 0 mm 3 m/s 745 mmHg 86%
    23:00 +17°C° 0 mm 3 m/s 745 mmHg 90%
    Mostrar mais